START_TIME,STEP,MOV.,M34,t_acc.,L5,t_acc.,L18,t_acc.,L14,t_acc.
1989-08-27T15:00:25.240 ,6,0,0.,12.0,0.,12.0,0.,12.0,0.,12.0
1989-08-27T15:00:37.240 ,6,0,0.,12.0,0.,12.0,0.,12.0,0.,12.0
1989-08-27T15:00:49.240 ,7,1,0.,12.0,0.,12.0,0.,12.0,0.,12.0
1989-08-27T15:01:01.240 ,7,1,0.,12.0,0.,12.0,0.,12.0,0.,12.0
1989-08-27T15:01:13.240 ,7,0,0.,12.0,0.,12.0,0.,12.0,0.,12.0
1989-08-27T15:01:25.240 ,7,0,0.,12.0,0.,12.0,0.,12.0,0.,12.0
1989-08-27T15:01:37.240 ,7,1,0.,12.0,0.,12.0,0.,12.0,0.,12.0
1989-08-27T15:01:49.240 ,7,1,0.,12.0,0.,12.0,0.,12.0,0.,12.0
1989-08-27T15:02:01.240 ,7,0,0.,12.0,0.,12.0,0.,12.0,0.,12.0
1989-08-27T15:02:13.240 ,7,0,0.,12.0,0.,12.0,0.,12.0,0.,12.0
1989-08-27T15:02:25.240 ,6,1,0.,12.0,0.,12.0,0.,12.0,0.,12.0
1989-08-27T15:02:37.240 ,6,1,0.,12.0,0.,12.0,0.,12.0,0.,12.0
1989-08-27T15:02:49.240 ,6,0,0.,12.0,0.,12.0,0.,12.0,0.,12.0
1989-08-27T15:03:01.240 ,6,0,0.,12.0,0.,12.0,0.,12.0,0.,12.0
1989-08-27T15:03:13.240 ,5,1,0.,12.0,0.,12.0,0.,12.0,0.,12.0
1989-08-27T15:03:25.240 ,5,1,0.,12.0,0.,12.0,0.,12.0,0.,12.0
1989-08-27T15:03:37.240 ,5,0,0.,12.0,0.,12.0,0.,12.0,0.,12.0
1989-08-27T15:03:49.240 ,5,0,0.,12.0,0.,12.0,0.,12.0,0.,12.0
1989-08-27T15:04:01.240 ,4,1,0.,12.0,0.,12.0,0.,12.0,0.,12.0
1989-08-27T15:04:13.240 ,4,1,0.,12.0,0.,12.0,0.,12.0,0.,12.0
1989-08-27T15:04:25.240 ,4,0,0.,12.0,0.,12.0,0.,12.0,0.,12.0
1989-08-27T15:04:37.240 ,4,0,0.,12.0,0.,12.0,0.,12.0,0.,12.0
1989-08-27T15:04:49.240 ,3,1,0.,12.0,0.,12.0,0.,12.0,0.,12.0
1989-08-27T15:05:01.240 ,3,1,0.,12.0,0.,12.0,0.,12.0,0.,12.0
1989-08-27T15:05:13.240 ,3,0,0.,12.0,0.,12.0,0.,12.0,0.,12.0
1989-08-27T15:05:25.240 ,3,0,0.,12.0,0.,12.0,0.,12.0,0.,12.0
1989-08-27T15:05:37.240 ,2,1,0.,12.0,0.,12.0,0.,12.0,0.,12.0
1989-08-27T15:05:49.240 ,2,1,0.,12.0,0.,12.0,0.,12.0,0.,12.0
1989-08-27T15:06:01.240 ,2,0,0.,12.0,0.,12.0,0.,12.0,0.,12.0
1989-08-27T15:06:13.240 ,2,0,0.,12.0,0.,12.0,0.,12.0,0.,12.0
1989-08-27T15:06:25.240 ,1,1,0.,12.0,0.,12.0,0.,12.0,0.,12.0
1989-08-27T15:06:37.240 ,1,1,0.,12.0,0.,12.0,0.,12.0,0.,12.0
1989-08-27T15:06:49.240 ,1,0,0.,12.0,0.,12.0,0.,12.0,0.,12.0
1989-08-27T15:07:01.240 ,1,0,0.,12.0,0.,12.0,0.,12.0,0.,12.0
1989-08-27T15:07:13.240 ,0,1,0.,12.0,0.,12.0,0.,12.0,0.,12.0
1989-08-27T15:07:25.240 ,0,1,0.,12.0,0.,12.0,0.,12.0,0.,12.0
1989-08-27T15:07:37.240 ,0,0,0.,12.0,0.,12.0,0.,12.0,0.,12.0
1989-08-27T15:07:49.240 ,0,0,0.,12.0,0.,12.0,0.,12.0,0.,12.0
1989-08-27T15:08:01.240 ,0,1,0.,12.0,0.,12.0,0.,12.0,0.,12.0
1989-08-27T15:08:13.240 ,0,1,0.,12.0,0.,12.0,0.,12.0,0.,12.0
1989-08-27T15:08:25.240 ,0,0,0.,12.0,0.,12.0,0.,12.0,0.,12.0
1989-08-27T15:08:37.240 ,0,0,0.,12.0,0.,12.0,0.,12.0,0.,12.0
1989-08-27T15:08:49.240 ,1,1,0.,12.0,0.,12.0,0.,12.0,0.,12.0
1989-08-27T15:09:01.240 ,1,1,0.,12.0,0.,12.0,0.,12.0,0.,12.0
1989-08-27T15:09:13.240 ,1,0,0.,12.0,0.,12.0,0.,12.0,0.,12.0
1989-08-27T15:09:25.240 ,1,0,0.,12.0,0.,12.0,0.,12.0,0.,12.0
1989-08-27T15:09:37.240 ,2,1,0.,12.0,0.,12.0,0.,12.0,0.,12.0
1989-08-27T15:09:49.240 ,2,1,0.,12.0,0.,12.0,0.,12.0,0.,12.0
1989-08-27T15:10:01.240 ,2,0,0.,12.0,0.,12.0,0.,12.0,0.,12.0
1989-08-27T15:10:13.240 ,2,0,0.,12.0,0.,12.0,0.,12.0,0.,12.0
1989-08-27T15:10:25.240 ,3,1,0.,12.0,0.,12.0,0.,12.0,0.,12.0
1989-08-27T15:10:37.240 ,3,1,0.,12.0,0.,12.0,0.,12.0,0.,12.0
1989-08-27T15:10:49.240 ,3,0,0.,12.0,0.,12.0,0.,12.0,0.,12.0
1989-08-27T15:11:01.240 ,3,0,0.,12.0,0.,12.0,0.,12.0,0.,12.0
1989-08-27T15:11:13.240 ,4,1,0.,12.0,0.,12.0,0.,12.0,0.,12.0
1989-08-27T15:11:25.240 ,4,1,0.,12.0,0.,12.0,0.,12.0,0.,12.0
1989-08-27T15:11:37.240 ,4,0,0.,12.0,0.,12.0,0.,12.0,0.,12.0
1989-08-27T15:11:49.240 ,4,0,0.,12.0,0.,12.0,0.,12.0,0.,12.0
1989-08-27T15:12:01.240 ,5,1,0.,12.0,0.,12.0,0.,12.0,0.,12.0
1989-08-27T15:12:13.240 ,5,1,0.,12.0,0.,12.0,0.,12.0,0.,12.0
1989-08-27T15:12:25.240 ,5,0,0.,12.0,0.,12.0,0.,12.0,0.,12.0
1989-08-27T15:12:37.240 ,5,0,0.,12.0,0.,12.0,0.,12.0,0.,12.0
1989-08-27T15:12:49.240 ,6,1,0.,12.0,0.,12.0,0.,12.0,0.,12.0
1989-08-27T15:13:01.240 ,6,1,0.,12.0,0.,12.0,0.,12.0,0.,12.0
1989-08-27T15:13:13.240 ,6,0,0.,12.0,0.,12.0,0.,12.0,0.,12.0
1989-08-27T15:13:25.240 ,6,0,0.,12.0,0.,12.0,0.,12.0,0.,12.0
1989-08-27T15:13:37.240 ,7,1,0.,12.0,1.,12.0,0.,12.0,0.,12.0
1989-08-27T15:13:49.240 ,7,1,0.,12.0,0.,12.0,0.,12.0,0.,12.0
1989-08-27T15:14:01.240 ,7,0,0.,12.0,0.,12.0,0.,12.0,0.,12.0
1989-08-27T15:14:13.240 ,7,0,0.,12.0,0.,12.0,0.,12.0,0.,12.0
1989-08-27T15:14:25.240 ,7,1,0.,12.0,0.,12.0,0.,12.0,0.,12.0
1989-08-27T15:14:37.240 ,7,1,0.,12.0,0.,12.0,0.,12.0,0.,12.0
1989-08-27T15:14:49.240 ,7,0,0.,12.0,0.,12.0,0.,12.0,0.,12.0
1989-08-27T15:15:01.240 ,7,0,0.,12.0,0.,12.0,0.,12.0,0.,12.0
1989-08-27T15:15:13.230 ,6,1,0.,12.0,0.,12.0,0.,12.0,0.,12.0
1989-08-27T15:15:25.230 ,6,1,0.,12.0,0.,12.0,0.,12.0,0.,12.0
1989-08-27T15:15:37.230 ,6,0,0.,12.0,0.,12.0,0.,12.0,0.,12.0
1989-08-27T15:15:49.230 ,6,0,0.,12.0,0.,12.0,0.,12.0,0.,12.0
1989-08-27T15:16:01.230 ,5,1,0.,12.0,0.,12.0,0.,12.0,0.,12.0
1989-08-27T15:16:13.230 ,5,1,0.,12.0,0.,12.0,0.,12.0,0.,12.0
1989-08-27T15:16:25.230 ,5,0,0.,12.0,0.,12.0,0.,12.0,0.,12.0
1989-08-27T15:16:37.230 ,5,0,0.,12.0,0.,12.0,0.,12.0,0.,12.0
1989-08-27T15:16:49.230 ,4,1,0.,12.0,0.,12.0,0.,12.0,0.,12.0
1989-08-27T15:17:01.230 ,4,1,0.,12.0,0.,12.0,0.,12.0,0.,12.0
1989-08-27T15:17:13.230 ,4,0,0.,12.0,0.,12.0,0.,12.0,0.,12.0
1989-08-27T15:17:25.230 ,4,0,0.,12.0,0.,12.0,0.,12.0,0.,12.0
1989-08-27T15:17:37.230 ,3,1,0.,12.0,0.,12.0,0.,12.0,0.,12.0
1989-08-27T15:17:49.230 ,3,1,0.,12.0,0.,12.0,0.,12.0,0.,12.0
1989-08-27T15:18:01.230 ,3,0,0.,12.0,0.,12.0,0.,12.0,0.,12.0
1989-08-27T15:18:13.230 ,3,0,0.,12.0,0.,12.0,0.,12.0,0.,12.0
1989-08-27T15:18:25.230 ,2,1,0.,12.0,0.,12.0,0.,12.0,0.,12.0
1989-08-27T15:18:37.230 ,2,1,0.,12.0,0.,12.0,0.,12.0,0.,12.0
1989-08-27T15:18:49.230 ,2,0,0.,12.0,0.,12.0,0.,12.0,0.,12.0
1989-08-27T15:19:01.230 ,2,0,0.,12.0,0.,12.0,0.,12.0,0.,12.0
1989-08-27T15:19:13.230 ,1,1,0.,12.0,0.,12.0,0.,12.0,0.,12.0
1989-08-27T15:19:25.230 ,1,1,0.,12.0,0.,12.0,0.,12.0,0.,12.0
1989-08-27T15:19:37.230 ,1,0,0.,12.0,0.,12.0,0.,12.0,0.,12.0
1989-08-27T15:19:49.230 ,1,0,0.,12.0,0.,12.0,0.,12.0,0.,12.0
1989-08-27T15:20:01.230 ,0,1,0.,12.0,0.,12.0,0.,12.0,0.,12.0
1989-08-27T15:20:13.230 ,0,1,0.,12.0,0.,12.0,0.,12.0,0.,12.0
1989-08-27T15:20:25.230 ,0,0,0.,12.0,0.,12.0,0.,12.0,0.,12.0
1989-08-27T15:20:37.230 ,0,0,0.,12.0,0.,12.0,0.,12.0,0.,12.0
1989-08-27T15:20:49.230 ,0,1,0.,12.0,0.,12.0,0.,12.0,0.,12.0
1989-08-27T15:21:01.230 ,0,1,0.,12.0,0.,12.0,0.,12.0,0.,12.0
1989-08-27T15:21:13.230 ,0,0,0.,12.0,0.,12.0,0.,12.0,0.,12.0
1989-08-27T15:21:25.230 ,0,0,0.,12.0,0.,12.0,0.,12.0,0.,12.0
1989-08-27T15:21:37.230 ,1,1,0.,12.0,0.,12.0,0.,12.0,0.,12.0
1989-08-27T15:21:49.230 ,1,1,0.,12.0,0.,12.0,0.,12.0,0.,12.0
1989-08-27T15:22:01.230 ,1,0,0.,12.0,0.,12.0,0.,12.0,0.,12.0
1989-08-27T15:22:13.230 ,1,0,0.,12.0,0.,12.0,0.,12.0,0.,12.0
1989-08-27T15:22:25.230 ,2,1,0.,12.0,0.,12.0,0.,12.0,0.,12.0
1989-08-27T15:22:37.230 ,2,1,0.,12.0,0.,12.0,0.,12.0,0.,12.0
1989-08-27T15:22:49.230 ,2,0,0.,12.0,0.,12.0,0.,12.0,0.,12.0
1989-08-27T15:23:01.230 ,2,0,0.,12.0,0.,12.0,0.,12.0,0.,12.0
1989-08-27T15:23:13.230 ,3,1,0.,12.0,0.,12.0,0.,12.0,0.,12.0
1989-08-27T15:23:25.230 ,3,1,0.,12.0,0.,12.0,0.,12.0,0.,12.0
1989-08-27T15:23:37.230 ,3,0,0.,12.0,0.,12.0,0.,12.0,0.,12.0
1989-08-27T15:23:49.230 ,3,0,0.,12.0,0.,12.0,0.,12.0,0.,12.0
1989-08-27T15:24:01.230 ,4,1,0.,12.0,0.,12.0,0.,12.0,0.,12.0
1989-08-27T15:24:13.230 ,4,1,0.,12.0,0.,12.0,0.,12.0,0.,12.0
1989-08-27T15:24:25.230 ,4,0,0.,12.0,0.,12.0,0.,12.0,0.,12.0
1989-08-27T15:24:37.230 ,4,0,0.,12.0,0.,12.0,0.,12.0,0.,12.0
1989-08-27T15:24:49.230 ,5,1,0.,12.0,0.,12.0,0.,12.0,0.,12.0
1989-08-27T15:25:01.230 ,5,1,0.,12.0,0.,12.0,0.,12.0,0.,12.0
1989-08-27T15:25:13.230 ,5,0,0.,12.0,0.,12.0,0.,12.0,0.,12.0
1989-08-27T15:25:25.230 ,5,0,0.,12.0,0.,12.0,0.,12.0,0.,12.0
1989-08-27T15:25:37.230 ,6,1,0.,12.0,0.,12.0,0.,12.0,0.,12.0
1989-08-27T15:25:49.230 ,6,1,0.,12.0,0.,12.0,0.,12.0,0.,12.0
1989-08-27T15:26:01.230 ,6,0,0.,12.0,0.,12.0,0.,12.0,0.,12.0
1989-08-27T15:26:13.230 ,6,0,0.,12.0,0.,12.0,0.,12.0,0.,12.0
1989-08-27T15:26:25.230 ,7,1,0.,12.0,0.,12.0,0.,12.0,0.,12.0
1989-08-27T15:26:37.230 ,7,1,0.,12.0,0.,12.0,0.,12.0,0.,12.0
1989-08-27T15:26:49.230 ,7,0,0.,12.0,0.,12.0,0.,12.0,0.,12.0
1989-08-27T15:27:01.230 ,7,0,0.,12.0,0.,12.0,0.,12.0,0.,12.0
1989-08-27T15:27:13.230 ,7,1,0.,12.0,0.,12.0,0.,12.0,0.,12.0
1989-08-27T15:27:25.230 ,7,1,0.,12.0,0.,12.0,0.,12.0,0.,12.0
1989-08-27T15:27:37.230 ,7,0,0.,12.0,0.,12.0,0.,12.0,0.,12.0
1989-08-27T15:27:49.230 ,7,0,0.,12.0,0.,12.0,0.,12.0,0.,12.0
1989-08-27T15:28:01.230 ,6,1,0.,12.0,0.,12.0,0.,12.0,0.,12.0
1989-08-27T15:28:13.230 ,6,1,0.,12.0,0.,12.0,0.,12.0,0.,12.0
1989-08-27T15:28:25.230 ,6,0,0.,12.0,0.,12.0,0.,12.0,0.,12.0
1989-08-27T15:28:37.230 ,6,0,0.,12.0,0.,12.0,0.,12.0,0.,12.0
1989-08-27T15:28:49.230 ,5,1,0.,12.0,0.,12.0,0.,12.0,0.,12.0
1989-08-27T15:29:01.230 ,5,1,0.,12.0,0.,12.0,0.,12.0,0.,12.0
1989-08-27T15:29:13.230 ,5,0,0.,12.0,0.,12.0,0.,12.0,0.,12.0
1989-08-27T15:29:25.230 ,5,0,0.,12.0,0.,12.0,0.,12.0,0.,12.0
1989-08-27T15:29:37.230 ,4,1,0.,12.0,0.,12.0,0.,12.0,0.,12.0
1989-08-27T15:29:49.230 ,4,1,0.,12.0,0.,12.0,0.,12.0,0.,12.0
1989-08-27T15:30:01.230 ,4,0,0.,12.0,0.,12.0,0.,12.0,0.,12.0
1989-08-27T15:30:13.230 ,4,0,0.,12.0,0.,12.0,0.,12.0,0.,12.0
1989-08-27T15:30:25.230 ,3,1,0.,12.0,0.,12.0,0.,12.0,0.,12.0
1989-08-27T15:30:37.230 ,3,1,0.,12.0,0.,12.0,0.,12.0,0.,12.0
1989-08-27T15:30:49.230 ,3,0,0.,12.0,0.,12.0,0.,12.0,0.,12.0
1989-08-27T15:31:01.230 ,3,0,0.,12.0,0.,12.0,0.,12.0,0.,12.0
1989-08-27T15:31:13.230 ,2,1,0.,12.0,0.,12.0,0.,12.0,0.,12.0
1989-08-27T15:31:25.230 ,2,1,0.,12.0,0.,12.0,0.,12.0,0.,12.0
1989-08-27T15:31:37.230 ,2,0,0.,12.0,0.,12.0,0.,12.0,0.,12.0
1989-08-27T15:31:49.230 ,2,0,0.,12.0,0.,12.0,0.,12.0,0.,12.0
1989-08-27T15:32:01.230 ,1,1,0.,12.0,0.,12.0,0.,12.0,0.,12.0
1989-08-27T15:32:13.230 ,1,1,0.,12.0,0.,12.0,0.,12.0,0.,12.0
1989-08-27T15:32:25.230 ,1,0,0.,12.0,0.,12.0,0.,12.0,0.,12.0
1989-08-27T15:32:37.230 ,1,0,0.,12.0,0.,12.0,0.,12.0,0.,12.0
1989-08-27T15:32:49.230 ,0,1,0.,12.0,0.,12.0,0.,12.0,0.,12.0
1989-08-27T15:33:01.230 ,0,1,0.,12.0,0.,12.0,0.,12.0,0.,12.0
1989-08-27T15:33:13.230 ,0,0,0.,12.0,0.,12.0,0.,12.0,0.,12.0
1989-08-27T15:33:25.230 ,0,0,0.,12.0,0.,12.0,0.,12.0,0.,12.0
1989-08-27T15:33:37.230 ,0,1,0.,12.0,0.,12.0,0.,12.0,0.,12.0
1989-08-27T15:33:49.230 ,0,1,0.,12.0,0.,12.0,0.,12.0,0.,12.0
1989-08-27T15:34:01.230 ,0,0,0.,12.0,0.,12.0,0.,12.0,0.,12.0
1989-08-27T15:34:13.230 ,0,0,0.,12.0,0.,12.0,0.,12.0,0.,12.0
1989-08-27T15:34:25.230 ,1,1,0.,12.0,0.,12.0,0.,12.0,0.,12.0
1989-08-27T15:34:37.230 ,1,1,0.,12.0,0.,12.0,0.,12.0,0.,12.0
1989-08-27T15:34:49.230 ,1,0,0.,12.0,0.,12.0,0.,12.0,0.,12.0
1989-08-27T15:35:01.230 ,1,0,0.,12.0,0.,12.0,0.,12.0,0.,12.0
1989-08-27T15:35:13.230 ,2,1,0.,12.0,0.,12.0,0.,12.0,0.,12.0
1989-08-27T15:35:25.230 ,2,1,0.,12.0,0.,12.0,0.,12.0,0.,12.0
1989-08-27T15:35:37.230 ,2,0,0.,12.0,0.,12.0,0.,12.0,0.,12.0
1989-08-27T15:35:49.230 ,2,0,0.,12.0,0.,12.0,0.,12.0,0.,12.0
1989-08-27T15:36:01.230 ,3,1,0.,12.0,0.,12.0,0.,12.0,0.,12.0
1989-08-27T15:36:13.230 ,3,1,0.,12.0,0.,12.0,0.,12.0,0.,12.0
1989-08-27T15:36:25.230 ,3,0,0.,12.0,0.,12.0,0.,12.0,0.,12.0
1989-08-27T15:36:37.230 ,3,0,0.,12.0,0.,12.0,0.,12.0,0.,12.0
1989-08-27T15:36:49.230 ,4,1,0.,12.0,0.,12.0,0.,12.0,0.,12.0
1989-08-27T15:37:01.230 ,4,1,0.,12.0,0.,12.0,0.,12.0,0.,12.0
1989-08-27T15:37:13.230 ,4,0,0.,12.0,0.,12.0,0.,12.0,0.,12.0
1989-08-27T15:37:25.230 ,4,0,0.,12.0,0.,12.0,0.,12.0,0.,12.0
1989-08-27T15:37:37.230 ,5,1,0.,12.0,0.,12.0,0.,12.0,0.,12.0
1989-08-27T15:37:49.230 ,5,1,0.,12.0,0.,12.0,0.,12.0,0.,12.0
1989-08-27T15:38:01.230 ,5,0,0.,12.0,0.,12.0,0.,12.0,0.,12.0
1989-08-27T15:38:13.230 ,5,0,0.,12.0,0.,12.0,0.,12.0,0.,12.0
1989-08-27T15:38:25.230 ,6,1,0.,12.0,0.,12.0,0.,12.0,0.,12.0
1989-08-27T15:38:37.230 ,6,1,0.,12.0,0.,12.0,0.,12.0,0.,12.0
1989-08-27T15:38:49.230 ,6,0,0.,12.0,0.,12.0,0.,12.0,0.,12.0
1989-08-27T15:39:01.230 ,6,0,0.,12.0,0.,12.0,0.,12.0,0.,12.0
1989-08-27T15:39:13.230 ,7,1,0.,12.0,0.,12.0,0.,12.0,0.,12.0
1989-08-27T15:39:25.230 ,7,1,0.,12.0,0.,12.0,0.,12.0,0.,12.0
1989-08-27T15:39:37.230 ,7,0,0.,12.0,1.,12.0,0.,12.0,0.,12.0
1989-08-27T15:39:49.230 ,7,0,0.,12.0,0.,12.0,0.,12.0,0.,12.0
1989-08-27T15:40:01.230 ,7,1,0.,12.0,0.,12.0,0.,12.0,0.,12.0
1989-08-27T15:40:13.230 ,7,1,0.,12.0,0.,12.0,0.,12.0,0.,12.0
1989-08-27T15:40:25.230 ,7,0,0.,12.0,0.,12.0,0.,12.0,0.,12.0
1989-08-27T15:40:37.230 ,7,0,0.,12.0,0.,12.0,0.,12.0,0.,12.0
1989-08-27T15:40:49.230 ,6,1,0.,12.0,0.,12.0,0.,12.0,0.,12.0
1989-08-27T15:41:01.230 ,6,1,0.,12.0,0.,12.0,0.,12.0,0.,12.0
1989-08-27T15:41:13.230 ,6,0,0.,12.0,0.,12.0,0.,12.0,0.,12.0
1989-08-27T15:41:25.230 ,6,0,0.,12.0,0.,12.0,0.,12.0,0.,12.0
1989-08-27T15:41:37.230 ,5,1,0.,12.0,0.,12.0,0.,12.0,0.,12.0
1989-08-27T15:41:49.230 ,5,1,0.,12.0,0.,12.0,0.,12.0,0.,12.0
1989-08-27T15:42:01.230 ,5,0,0.,12.0,0.,12.0,0.,12.0,0.,12.0
1989-08-27T15:42:13.230 ,5,0,0.,12.0,0.,12.0,0.,12.0,0.,12.0
1989-08-27T15:42:25.230 ,4,1,0.,12.0,0.,12.0,0.,12.0,0.,12.0
1989-08-27T15:42:37.230 ,4,1,0.,12.0,0.,12.0,0.,12.0,0.,12.0
1989-08-27T15:42:49.230 ,4,0,0.,12.0,0.,12.0,0.,12.0,0.,12.0
1989-08-27T15:43:01.230 ,4,0,0.,12.0,0.,12.0,0.,12.0,0.,12.0
1989-08-27T15:43:13.230 ,3,1,0.,12.0,0.,12.0,0.,12.0,0.,12.0
1989-08-27T15:43:25.230 ,3,1,0.,12.0,0.,12.0,0.,12.0,0.,12.0
1989-08-27T15:43:37.230 ,0,0,0.,12.0,0.,12.0,0.,12.0,0.,12.0
1989-08-27T15:43:49.230 ,0,0,,0,,0,,0,,0
1989-08-27T15:43:40.830 ,0,0,,0,,0,,0,,0
1989-08-27T15:43:52.830 ,0,0,0.,12.0,0.,12.0,0.,12.0,0.,12.0
1989-08-27T15:44:01.230 ,2,1,0.,12.0,0.,12.0,0.,12.0,0.,12.0
1989-08-27T15:44:13.230 ,2,1,0.,12.0,0.,12.0,0.,12.0,0.,12.0
1989-08-27T15:44:25.230 ,2,0,0.,12.0,0.,12.0,0.,12.0,0.,12.0
1989-08-27T15:44:37.230 ,2,0,0.,12.0,0.,12.0,0.,12.0,0.,12.0
1989-08-27T15:44:49.230 ,1,1,0.,12.0,0.,12.0,0.,12.0,0.,12.0
1989-08-27T15:45:01.230 ,1,1,0.,12.0,0.,12.0,0.,12.0,0.,12.0
1989-08-27T15:45:13.230 ,1,0,0.,12.0,0.,12.0,0.,12.0,0.,12.0
1989-08-27T15:45:25.230 ,1,0,0.,12.0,0.,12.0,0.,12.0,0.,12.0
1989-08-27T15:45:37.230 ,0,1,0.,12.0,0.,12.0,0.,12.0,0.,12.0
1989-08-27T15:45:49.230 ,0,1,0.,12.0,0.,12.0,0.,12.0,0.,12.0
1989-08-27T15:46:01.230 ,0,0,0.,12.0,0.,12.0,0.,12.0,0.,12.0
1989-08-27T15:46:13.230 ,0,0,0.,12.0,0.,12.0,0.,12.0,0.,12.0
1989-08-27T15:46:25.230 ,0,1,0.,12.0,0.,12.0,0.,12.0,0.,12.0
1989-08-27T15:46:37.230 ,0,1,0.,12.0,0.,12.0,0.,12.0,0.,12.0
1989-08-27T15:46:49.230 ,0,0,0.,12.0,0.,12.0,0.,12.0,0.,12.0
1989-08-27T15:47:01.230 ,0,0,0.,12.0,0.,12.0,0.,12.0,0.,12.0
1989-08-27T15:47:13.230 ,1,1,0.,12.0,0.,12.0,0.,12.0,0.,12.0
1989-08-27T15:47:25.230 ,1,1,0.,12.0,0.,12.0,0.,12.0,0.,12.0
1989-08-27T15:47:37.230 ,1,0,0.,12.0,0.,12.0,0.,12.0,0.,12.0
1989-08-27T15:47:49.230 ,1,0,0.,12.0,0.,12.0,0.,12.0,0.,12.0
1989-08-27T15:48:01.230 ,2,1,0.,12.0,0.,12.0,0.,12.0,0.,12.0
1989-08-27T15:48:13.230 ,2,1,0.,12.0,0.,12.0,0.,12.0,0.,12.0
1989-08-27T15:48:25.230 ,2,0,0.,12.0,0.,12.0,0.,12.0,0.,12.0
1989-08-27T15:48:37.230 ,2,0,0.,12.0,0.,12.0,0.,12.0,0.,12.0
1989-08-27T15:48:49.230 ,3,1,0.,12.0,0.,12.0,0.,12.0,0.,12.0
1989-08-27T15:49:01.230 ,3,1,0.,12.0,0.,12.0,0.,12.0,0.,12.0
1989-08-27T15:49:13.230 ,3,0,0.,12.0,0.,12.0,0.,12.0,0.,12.0
1989-08-27T15:49:25.230 ,3,0,0.,12.0,0.,12.0,0.,12.0,0.,12.0
1989-08-27T15:49:37.230 ,4,1,0.,12.0,0.,12.0,0.,12.0,0.,12.0
1989-08-27T15:49:49.230 ,4,1,0.,12.0,0.,12.0,0.,12.0,0.,12.0
1989-08-27T15:50:01.230 ,4,0,0.,12.0,0.,12.0,0.,12.0,0.,12.0
1989-08-27T15:50:13.230 ,4,0,0.,12.0,0.,12.0,0.,12.0,0.,12.0
1989-08-27T15:50:25.230 ,5,1,0.,12.0,0.,12.0,0.,12.0,0.,12.0
1989-08-27T15:50:37.230 ,5,1,0.,12.0,0.,12.0,0.,12.0,0.,12.0
1989-08-27T15:50:49.230 ,5,0,0.,12.0,0.,12.0,0.,12.0,0.,12.0
1989-08-27T15:51:01.230 ,5,0,0.,12.0,0.,12.0,0.,12.0,0.,12.0
1989-08-27T15:51:13.230 ,6,1,0.,12.0,0.,12.0,0.,12.0,0.,12.0
1989-08-27T15:51:25.230 ,6,1,0.,12.0,0.,12.0,0.,12.0,0.,12.0
1989-08-27T15:51:37.230 ,6,0,0.,12.0,0.,12.0,0.,12.0,0.,12.0
1989-08-27T15:51:49.230 ,6,0,0.,12.0,0.,12.0,0.,12.0,0.,12.0
1989-08-27T15:52:01.230 ,7,1,0.,12.0,0.,12.0,0.,12.0,0.,12.0
1989-08-27T15:52:13.230 ,7,1,0.,12.0,0.,12.0,0.,12.0,0.,12.0
1989-08-27T15:52:25.230 ,7,0,0.,12.0,0.,12.0,0.,12.0,0.,12.0
1989-08-27T15:52:37.230 ,7,0,0.,12.0,0.,12.0,0.,12.0,0.,12.0
1989-08-27T15:52:49.230 ,7,1,0.,12.0,0.,12.0,0.,12.0,0.,12.0
1989-08-27T15:53:01.230 ,7,1,0.,12.0,0.,12.0,0.,12.0,0.,12.0
1989-08-27T15:53:13.230 ,7,0,0.,12.0,0.,12.0,0.,12.0,0.,12.0
1989-08-27T15:53:25.230 ,7,0,0.,12.0,0.,12.0,0.,12.0,0.,12.0
1989-08-27T15:53:37.230 ,6,1,0.,12.0,0.,12.0,0.,12.0,0.,12.0
1989-08-27T15:53:49.230 ,6,1,0.,12.0,0.,12.0,0.,12.0,0.,12.0
1989-08-27T15:54:01.230 ,6,0,0.,12.0,0.,12.0,0.,12.0,0.,12.0
1989-08-27T15:54:13.230 ,6,0,0.,12.0,0.,12.0,0.,12.0,0.,12.0
1989-08-27T15:54:25.230 ,5,1,0.,12.0,0.,12.0,0.,12.0,0.,12.0
1989-08-27T15:54:37.230 ,5,1,0.,12.0,0.,12.0,0.,12.0,0.,12.0
1989-08-27T15:54:49.230 ,5,0,0.,12.0,0.,12.0,0.,12.0,0.,12.0
1989-08-27T15:55:01.230 ,5,0,0.,12.0,0.,12.0,0.,12.0,0.,12.0
1989-08-27T15:55:13.230 ,4,1,0.,12.0,0.,12.0,0.,12.0,0.,12.0
1989-08-27T15:55:25.230 ,4,1,0.,12.0,0.,12.0,0.,12.0,0.,12.0
1989-08-27T15:55:37.230 ,4,0,0.,12.0,0.,12.0,0.,12.0,0.,12.0
1989-08-27T15:55:49.230 ,4,0,0.,12.0,0.,12.0,0.,12.0,0.,12.0
1989-08-27T15:56:01.230 ,3,1,0.,12.0,0.,12.0,0.,12.0,0.,12.0
1989-08-27T15:56:13.230 ,3,1,0.,12.0,0.,12.0,0.,12.0,0.,12.0
1989-08-27T15:56:25.230 ,3,0,0.,12.0,0.,12.0,0.,12.0,0.,12.0
1989-08-27T15:56:37.230 ,3,0,0.,12.0,0.,12.0,0.,12.0,0.,12.0
1989-08-27T15:56:49.230 ,2,1,0.,12.0,0.,12.0,0.,12.0,0.,12.0
1989-08-27T15:57:01.230 ,2,1,0.,12.0,0.,12.0,0.,12.0,0.,12.0
1989-08-27T15:57:13.230 ,2,0,0.,12.0,0.,12.0,0.,12.0,0.,12.0
1989-08-27T15:57:25.230 ,2,0,0.,12.0,0.,12.0,0.,12.0,0.,12.0
1989-08-27T15:57:37.230 ,1,1,0.,12.0,0.,12.0,0.,12.0,0.,12.0
1989-08-27T15:57:49.230 ,1,1,0.,12.0,0.,12.0,0.,12.0,0.,12.0
1989-08-27T15:58:01.230 ,1,0,0.,12.0,0.,12.0,0.,12.0,0.,12.0
1989-08-27T15:58:13.230 ,1,0,0.,12.0,0.,12.0,0.,12.0,0.,12.0
1989-08-27T15:58:25.230 ,0,1,0.,12.0,0.,12.0,0.,12.0,0.,12.0
1989-08-27T15:58:37.230 ,0,1,0.,12.0,0.,12.0,0.,12.0,0.,12.0
1989-08-27T15:58:49.230 ,0,0,0.,12.0,0.,12.0,0.,12.0,0.,12.0
1989-08-27T15:59:01.230 ,0,0,0.,12.0,0.,12.0,0.,12.0,0.,12.0
1989-08-27T15:59:13.230 ,0,1,0.,12.0,0.,12.0,0.,12.0,0.,12.0
1989-08-27T15:59:25.230 ,0,1,0.,12.0,0.,12.0,0.,12.0,0.,12.0
1989-08-27T15:59:37.230 ,0,0,0.,12.0,0.,12.0,0.,12.0,0.,12.0
1989-08-27T15:59:49.230 ,0,0,0.,12.0,0.,12.0,0.,12.0,0.,12.0
1989-08-27T16:00:01.230 ,1,1,0.,12.0,0.,12.0,0.,12.0,0.,12.0
1989-08-27T16:00:13.230 ,1,1,0.,12.0,0.,12.0,0.,12.0,0.,12.0
1989-08-27T16:00:25.230 ,1,0,0.,12.0,0.,12.0,0.,12.0,0.,12.0
1989-08-27T16:00:37.230 ,1,0,0.,12.0,0.,12.0,0.,12.0,0.,12.0
1989-08-27T16:00:49.230 ,2,1,0.,12.0,0.,12.0,0.,12.0,0.,12.0
1989-08-27T16:01:01.230 ,2,1,0.,12.0,0.,12.0,0.,12.0,0.,12.0
1989-08-27T16:01:13.230 ,2,0,0.,12.0,1.,12.0,0.,12.0,0.,12.0
1989-08-27T16:01:25.230 ,2,0,0.,12.0,0.,12.0,0.,12.0,0.,12.0
1989-08-27T16:01:37.230 ,3,1,0.,12.0,0.,12.0,0.,12.0,0.,12.0
1989-08-27T16:01:49.230 ,3,1,0.,12.0,0.,12.0,0.,12.0,0.,12.0
1989-08-27T16:02:01.230 ,3,0,0.,12.0,0.,12.0,0.,12.0,0.,12.0
1989-08-27T16:02:13.230 ,3,0,0.,12.0,0.,12.0,0.,12.0,0.,12.0
1989-08-27T16:02:25.230 ,4,1,0.,12.0,0.,12.0,0.,12.0,0.,12.0
1989-08-27T16:02:37.230 ,4,1,0.,12.0,0.,12.0,0.,12.0,0.,12.0
1989-08-27T16:02:49.230 ,4,0,0.,12.0,0.,12.0,0.,12.0,0.,12.0
1989-08-27T16:03:01.230 ,4,0,0.,12.0,0.,12.0,0.,12.0,0.,12.0
1989-08-27T16:03:13.230 ,5,1,0.,12.0,0.,12.0,0.,12.0,0.,12.0
1989-08-27T16:03:25.230 ,5,1,0.,12.0,0.,12.0,0.,12.0,0.,12.0
1989-08-27T16:03:37.230 ,5,0,0.,12.0,0.,12.0,0.,12.0,0.,12.0
1989-08-27T16:03:49.230 ,5,0,0.,12.0,0.,12.0,0.,12.0,0.,12.0
1989-08-27T16:04:01.230 ,6,1,0.,12.0,0.,12.0,0.,12.0,0.,12.0
1989-08-27T16:04:13.230 ,6,1,0.,12.0,0.,12.0,0.,12.0,0.,12.0
1989-08-27T16:04:25.230 ,6,0,0.,12.0,0.,12.0,0.,12.0,0.,12.0
1989-08-27T16:04:37.230 ,6,0,0.,12.0,0.,12.0,0.,12.0,0.,12.0
1989-08-27T16:04:49.230 ,7,1,0.,12.0,0.,12.0,0.,12.0,0.,12.0
1989-08-27T16:05:01.230 ,7,1,0.,12.0,0.,12.0,0.,12.0,0.,12.0
1989-08-27T16:05:13.230 ,7,0,0.,12.0,0.,12.0,0.,12.0,0.,12.0
1989-08-27T16:05:25.230 ,7,0,0.,12.0,0.,12.0,0.,12.0,0.,12.0
1989-08-27T16:05:37.230 ,7,1,0.,12.0,0.,12.0,0.,12.0,0.,12.0
1989-08-27T16:05:49.230 ,7,1,0.,12.0,0.,12.0,0.,12.0,0.,12.0
1989-08-27T16:06:01.230 ,7,0,0.,12.0,0.,12.0,0.,12.0,0.,12.0
1989-08-27T16:06:13.230 ,7,0,0.,12.0,0.,12.0,0.,12.0,0.,12.0
1989-08-27T16:06:25.230 ,6,1,0.,12.0,0.,12.0,0.,12.0,0.,12.0
1989-08-27T16:06:37.230 ,6,1,0.,12.0,0.,12.0,0.,12.0,0.,12.0
1989-08-27T16:06:49.230 ,6,0,0.,12.0,0.,12.0,0.,12.0,0.,12.0
1989-08-27T16:07:01.230 ,6,0,0.,12.0,0.,12.0,0.,12.0,0.,12.0
1989-08-27T16:07:13.230 ,5,1,0.,12.0,0.,12.0,0.,12.0,0.,12.0
1989-08-27T16:07:25.230 ,5,1,0.,12.0,0.,12.0,0.,12.0,0.,12.0
1989-08-27T16:07:37.230 ,5,0,0.,12.0,0.,12.0,0.,12.0,0.,12.0
1989-08-27T16:07:49.230 ,5,0,0.,12.0,0.,12.0,0.,12.0,0.,12.0
1989-08-27T16:08:01.230 ,4,1,0.,12.0,0.,12.0,0.,12.0,0.,12.0
1989-08-27T16:08:13.230 ,4,1,0.,12.0,0.,12.0,0.,12.0,0.,12.0
1989-08-27T16:08:25.230 ,4,0,0.,12.0,0.,12.0,0.,12.0,0.,12.0
1989-08-27T16:08:37.230 ,4,0,0.,12.0,0.,12.0,0.,12.0,0.,12.0
1989-08-27T16:08:49.230 ,3,1,0.,12.0,0.,12.0,0.,12.0,0.,12.0
1989-08-27T16:09:01.230 ,3,1,0.,12.0,0.,12.0,0.,12.0,0.,12.0
1989-08-27T16:09:13.230 ,3,0,0.,12.0,0.,12.0,0.,12.0,0.,12.0
1989-08-27T16:09:25.230 ,3,0,0.,12.0,0.,12.0,0.,12.0,0.,12.0
1989-08-27T16:09:37.230 ,2,1,0.,12.0,0.,12.0,0.,12.0,0.,12.0
1989-08-27T16:09:49.230 ,2,1,0.,12.0,0.,12.0,0.,12.0,0.,12.0
1989-08-27T16:10:01.230 ,2,0,0.,12.0,0.,12.0,0.,12.0,0.,12.0
1989-08-27T16:10:13.230 ,2,0,0.,12.0,0.,12.0,0.,12.0,0.,12.0
1989-08-27T16:10:25.230 ,1,1,0.,12.0,0.,12.0,0.,12.0,0.,12.0
1989-08-27T16:10:37.230 ,1,1,0.,12.0,0.,12.0,0.,12.0,0.,12.0
1989-08-27T16:10:49.230 ,1,0,0.,12.0,0.,12.0,0.,12.0,0.,12.0
1989-08-27T16:11:01.230 ,1,0,0.,12.0,0.,12.0,0.,12.0,0.,12.0
1989-08-27T16:11:13.230 ,0,1,0.,12.0,0.,12.0,0.,12.0,0.,12.0
1989-08-27T16:11:25.230 ,0,1,0.,12.0,0.,12.0,0.,12.0,0.,12.0
1989-08-27T16:11:37.230 ,0,0,0.,12.0,0.,12.0,0.,12.0,0.,12.0
1989-08-27T16:11:49.230 ,0,0,0.,12.0,0.,12.0,0.,12.0,0.,12.0
1989-08-27T16:12:01.230 ,0,1,0.,12.0,0.,12.0,0.,12.0,0.,12.0
1989-08-27T16:12:13.230 ,0,1,0.,12.0,0.,12.0,0.,12.0,0.,12.0
1989-08-27T16:12:25.230 ,0,0,0.,12.0,0.,12.0,0.,12.0,0.,12.0
1989-08-27T16:12:37.230 ,0,0,0.,12.0,0.,12.0,0.,12.0,0.,12.0
1989-08-27T16:12:49.230 ,1,1,0.,12.0,0.,12.0,0.,12.0,0.,12.0
1989-08-27T16:13:01.230 ,1,1,0.,12.0,0.,12.0,0.,12.0,0.,12.0
1989-08-27T16:13:13.230 ,1,0,0.,12.0,0.,12.0,0.,12.0,0.,12.0
1989-08-27T16:13:25.230 ,1,0,0.,12.0,0.,12.0,0.,12.0,0.,12.0
1989-08-27T16:13:37.230 ,2,1,0.,12.0,0.,12.0,0.,12.0,0.,12.0
1989-08-27T16:13:49.230 ,2,1,0.,12.0,0.,12.0,0.,12.0,0.,12.0
1989-08-27T16:14:01.230 ,2,0,0.,12.0,0.,12.0,0.,12.0,0.,12.0
1989-08-27T16:14:13.230 ,2,0,0.,12.0,0.,12.0,0.,12.0,0.,12.0
1989-08-27T16:14:25.230 ,3,1,0.,12.0,0.,12.0,0.,12.0,0.,12.0
1989-08-27T16:14:37.230 ,3,1,0.,12.0,0.,12.0,0.,12.0,0.,12.0
1989-08-27T16:14:49.230 ,3,0,0.,12.0,0.,12.0,0.,12.0,0.,12.0
1989-08-27T16:15:01.230 ,3,0,0.,12.0,0.,12.0,0.,12.0,0.,12.0
1989-08-27T16:15:13.230 ,4,1,0.,12.0,0.,12.0,0.,12.0,0.,12.0
1989-08-27T16:15:25.230 ,4,1,0.,12.0,0.,12.0,0.,12.0,0.,12.0
1989-08-27T16:15:37.230 ,4,0,0.,12.0,0.,12.0,0.,12.0,0.,12.0
1989-08-27T16:15:49.230 ,4,0,0.,12.0,0.,12.0,0.,12.0,0.,12.0
1989-08-27T16:16:01.230 ,5,1,0.,12.0,0.,12.0,0.,12.0,0.,12.0
1989-08-27T16:16:13.230 ,5,1,0.,12.0,0.,12.0,0.,12.0,0.,12.0
1989-08-27T16:16:25.230 ,0,0,0.,12.0,0.,12.0,0.,12.0,0.,12.0
1989-08-27T16:16:37.230 ,0,0,0.,12.0,0.,12.0,0.,12.0,0.,12.0
1989-08-27T16:17:33.030 ,0,0,,0,,0,,0,,0
1989-08-27T16:17:45.030 ,0,0,,0,,0,,0,,0
1989-08-27T16:17:37.230 ,7,1,0.,12.0,0.,12.0,0.,12.0,0.,12.0